sat.trackr.live / text

‹ back to catalog

STARLINK-34141

NORAD 64020 · 2025-101AC

PAYLOAD ACTIVE UNKNOWN

§ Identity

Operator
Country
US
Launch date
2025-05-14
Launch site
AFETR
Launch vehicle
Mass (kg)
RCS (m²)

Purposes: comms

External: N2YO · Heavens-Above · Gunter

§ Orbital elements

Epoch: 2026-05-25T02:56:01.535136Z

Period
94.27 min
Inclination
42.9980°
Eccentricity
0.0001948
Mean motion
15.27594412 rev/d
Perigee alt
481.7 km
Apogee alt
484.3 km
Semi-major
6,861.1 km
B*
6.9677e-4
RAAN
286.3852°
Arg perigee
270.8642°
Mean anomaly
89.1986°
Rev number
5,874

§ Raw data

STARLINK-341411 64020U 25101AC  26145.12223999  .00018970  00000+0  69677-3 0  99982 64020  42.9980 286.3852 0001948 270.8642  89.1986 15.27594412 58746

JSON: /api/v1/satellites/64020 · /tle

For live sub-satellite position, see the globe view (requires WebGL).

§ Visibility from observer

Set your observer location to see the next 7 days of passes ≥ 10°. The values pass through the URL so the page stays shareable.

No JS? Fill the form by hand. The geolocation button needs JavaScript.